GW4873 Weather Reports


time (UTC)temp
F
wind
direction
speed
knots
gust
knots
rain 1hr
in
rain 24hr
in
rain mn
in
humidity
%
barometer
mb
20260509212937 90 40 3.5 8.7 0.00 0.00 0.00 37 1008.2
20260509212434 90 173 1.7 4.3 0.00 0.00 0.00 37 1008.3
20260509211930 90 351 0.9 7.0 0.00 0.00 0.00 37 1008.4
20260509211426 91 72 3.5 8.7 0.00 0.00 0.00 35 1008.3
20260509210922 91 66 1.7 4.3 0.00 0.00 0.00 36 1008.3
20260509210421 92 333 5.2 8.7 0.00 0.00 0.00 32 1008.4
20260509205921 91 220 0.9 11.3 0.00 0.00 0.00 35 1008.5
20260509205421 91 39 3.5 4.3 0.00 0.00 0.00 32 1008.9
20260509204917 90 36 3.5 11.3 0.00 0.00 0.00 31 1008.7
20260509204414 91 35 4.3 7.0 0.00 0.00 0.00 32 1008.7
20260509203910 90 336 0.9 7.0 0.00 0.00 0.00 36 1008.9
20260509203406 90 295 1.7 8.7 0.00 0.00 0.00 34 1009.0
20260509202904 89 216 0.9 8.7 0.00 0.00 0.00 27 1009.2
20260509202359 89 203 0.9 4.3 0.00 0.00 0.00 35 1008.9
20260509201854 89 106 0.9 7.0 0.00 0.00 0.00 36 1009.1
20260509201350 90 184 5.2 8.7 0.00 0.00 0.00 34 1009.2
20260509200847 89 39 3.5 11.3 0.00 0.00 0.00 36 1009.4
20260509200342 88 215 3.5 11.3 0.00 0.00 0.00 37 1009.4
20260509195840 88 72 5.2 8.7 0.00 0.00 0.00 41 1009.3
20260509195339 88 69 3.5 11.3 0.00 0.00 0.00 43 1009.4
20260509194839 89 216 7.8 8.7 0.00 0.00 0.00 44 1009.3
20260509194335 89 167 1.7 8.7 0.00 0.00 0.00 49 1009.5
20260509193832 89 1 13.9 15.6 0.00 0.00 0.00 46 1009.5
20260509193326 88 80 5.2 13.0 0.00 0.00 0.00 49 1009.5
20260509192823 89 354 2.6 11.3 0.00 0.00 0.00 46 1009.8
20260509192319 89 68 9.6 13.0 0.00 0.00 0.00 45 1009.6
20260509191814 90 92 2.6 7.0 0.00 0.00 0.00 42 1009.8
20260509191310 90 215 0.0 4.3 0.00 0.00 0.00 45 1009.8
20260509190806 88 277 0.9 4.3 0.00 0.00 0.00 46 1009.8
20260509190304 88 220 1.7 1.7 0.00 0.00 0.00 48 1009.9
20260509185801 88 25 0.0 7.0 0.00 0.00 0.00 43 1010.0
20260509185257 89 353 12.2 15.6 0.00 0.00 0.00 42 1009.9
20260509184754 88 217 0.9 1.7 0.00 0.00 0.00 46 1010.0
20260509184252 89 323 4.3 8.7 0.00 0.00 0.00 46 1009.9
20260509183748 87 146 2.6 4.3 0.00 0.00 0.00 47 1010.1
20260509183244 87 317 3.5 7.0 0.00 0.00 0.00 46 1010.1
20260509182739 87 13 6.1 8.7 0.00 0.00 0.00 48 1010.2
20260509182237 89 46 5.2 7.0 0.00 0.00 0.00 45 1010.3
20260509181734 88 215 1.7 4.3 0.00 0.00 0.00 46 1010.2
20260509181231 87 100 2.6 4.3 0.00 0.00 0.00 46 1010.3
20260509180728 87 266 1.7 8.7 0.00 0.00 0.00 48 1010.4
20260509180225 88 243 6.1 8.7 0.00 0.00 0.00 49 1010.5
20260509175721 87 307 6.1 11.3 0.00 0.00 0.00 47 1010.5
20260509175217 87 275 1.7 11.3 0.00 0.00 0.00 51 1010.5
20260509174713 86 35 2.6 7.0 0.00 0.00 0.00 49 1010.5
20260509174209 87 109 0.0 8.7 0.00 0.00 0.00 49 1010.6
20260509173705 86 82 0.0 7.0 0.00 0.00 0.00 48 1010.7
20260509173201 86 75 8.7 11.3 0.00 0.00 0.00 47 1010.7
20260509172657 86 321 2.6 8.7 0.00 0.00 0.00 50 1010.7
20260509172154 86 306 5.2 13.0 0.00 0.00 0.00 48 1010.7
20260509171649 86 321 3.5 11.3 0.00 0.00 0.00 47 1010.6
20260509171146 86 354 9.6 11.3 0.00 0.00 0.00 47 1010.8
20260509170643 86 273 5.2 7.0 0.00 0.00 0.00 49 1010.8
20260509170138 86 23 7.8 13.0 0.00 0.00 0.00 50 1010.7
20260509165637 86 182 5.2 8.7 0.00 0.00 0.00 50 1010.8
20260509165133 85 325 1.7 13.0 0.00 0.00 0.00 53 1010.8
20260509164629 85 235 7.8 8.7 0.00 0.00 0.00 54 1010.9
20260509164125 84 334 7.8 11.3 0.00 0.00 0.00 52 1011.0
20260509163623 83 2 7.8 11.3 0.00 0.00 0.00 51 1011.1
20260509163118 83 47 6.1 15.6 0.00 0.00 0.00 54 1010.9
20260509162615 84 357 13.0 15.6 0.00 0.00 0.00 53 1011.0
20260509162111 84 6 13.0 15.6 0.00 0.00 0.00 52 1011.2
20260509161608 82 358 7.0 8.7 0.00 0.00 0.00 53 1011.1
20260509161108 83 328 7.8 11.3 0.00 0.00 0.00 53 1011.2
20260509160604 83 335 4.3 8.7 0.00 0.00 0.00 55 1011.1
20260509160059 83 14 1.7 7.0 0.00 0.00 0.00 55 1011.1
20260509155556 82 54 7.8 11.3 0.00 0.00 0.00 56 1011.1
20260509155053 82 352 3.5 8.7 0.00 0.00 0.00 57 1011.0
20260509154548 81 282 4.3 13.0 0.00 0.00 0.00 59 1011.1
20260509154046 81 183 1.7 8.7 0.00 0.00 0.00 62 1010.9
20260509153543 81 347 11.3 15.6 0.00 0.00 0.00 61 1010.8
20260509153040 80 38 6.1 11.3 0.00 0.00 0.00 61 1011.0
20260509152536 80 356 7.8 15.6 0.00 0.00 0.00 62 1010.8
20260509152033 80 118 0.9 11.3 0.00 0.00 0.00 64 1010.9
20260509151529 80 359 6.1 8.7 0.00 0.00 0.00 62 1011.0
20260509151027 79 2 6.1 13.0 0.00 0.00 0.00 62 1010.9
20260509150524 79 339 7.0 11.3 0.00 0.00 0.00 63 1011.2
20260509150023 79 23 5.2 8.7 0.00 0.00 0.00 62 1011.0
20260509145518 78 8 3.5 8.7 0.00 0.00 0.00 64 1011.1
20260509145013 78 71 3.5 11.3 0.00 0.00 0.00 65 1011.0
20260509144511 78 63 3.5 7.0 0.00 0.00 0.00 67 1010.9
20260509144008 76 277 2.6 8.7 0.00 0.00 0.00 70 1011.0
20260509143504 76 48 7.8 15.6 0.00 0.00 0.00 68 1011.0
20260509143001 77 321 7.8 13.0 0.00 0.00 0.00 68 1011.1
20260509142458 76 310 6.1 11.3 0.00 0.00 0.00 70 1011.0
20260509141953 75 281 5.2 11.3 0.00 0.00 0.00 72 1011.3
20260509141450 76 331 7.0 11.3 0.00 0.00 0.00 71 1011.2
20260509140947 76 320 2.6 8.7 0.00 0.00 0.00 72 1011.3
20260509140443 76 296 4.3 7.0 0.00 0.00 0.00 73 1011.3
20260509135942 75 295 2.6 11.3 0.00 0.00 0.00 74 1011.2
20260509135438 74 293 2.6 11.3 0.00 0.00 0.00 74 1011.5
20260509134936 74 210 7.0 8.7 0.00 0.00 0.00 75 1011.4
20260509134433 73 234 0.0 7.0 0.00 0.00 0.00 77 1011.5
20260509133931 72 257 3.5 8.7 0.00 0.00 0.00 77 1011.3
20260509133427 72 229 5.2 8.7 0.00 0.00 0.00 77 1011.4
20260509132925 72 342 7.0 8.7 0.00 0.00 0.00 76 1011.3
20260509132423 71 183 2.6 7.0 0.00 0.00 0.00 77 1011.2
20260509131920 71 236 4.3 7.0 0.00 0.00 0.00 76 1011.2
20260509131417 71 280 0.0 7.0 0.00 0.00 0.00 76 1011.2
20260509130914 70 347 6.1 7.0 0.00 0.00 0.00 77 1011.1
20260509130409 70 84 1.7 7.0 0.00 0.00 0.00 78 1011.2
20260509125906 69 16 2.6 7.0 0.00 0.00 0.00 78 1011.1
20260509125403 69 188 0.0 11.3 0.00 0.00 0.00 78 1011.4
20260509124858 69 320 0.9 7.0 0.00 0.00 0.00 79 1011.2
20260509124356 69 0 2.6 7.0 0.00 0.00 0.00 78 1011.0
20260509123854 68 233 1.7 7.0 0.00 0.00 0.00 79 1011.1
20260509123351 68 359 0.9 4.3 0.00 0.00 0.00 80 1011.0
20260509122846 68 341 4.3 7.0 0.00 0.00 0.00 80 1010.9
20260509122343 67 328 4.3 8.7 0.00 0.00 0.00 80 1010.9
20260509121840 67 308 2.6 7.0 0.00 0.00 0.00 80 1010.9
20260509121337 67 285 3.5 4.3 0.00 0.00 0.00 80 1010.7
20260509120835 67 349 0.9 4.3 0.00 0.00 0.00 80 1010.7
20260509120333 67 234 3.5 4.3 0.00 0.00 0.00 80 1010.7
20260509115831 67 330 3.5 4.3 0.00 0.00 0.00 80 1010.4
20260509115328 67 27 4.3 7.0 0.00 0.00 0.00 80 1010.5
20260509114825 67 50 2.6 4.3 0.00 0.00 0.00 80 1010.5
20260509114324 67 18 2.6 4.3 0.00 0.00 0.00 80 1010.4
20260509113823 67 302 0.9 4.3 0.00 0.00 0.00 79 1010.3
20260509113319 67 81 0.0 4.3 0.00 0.00 0.00 79 1010.1
20260509112816 67 80 1.7 4.3 0.00 0.00 0.00 80 1010.1
20260509112313 67 266 0.0 1.7 0.00 0.00 0.00 80 1009.8
20260509111810 68 131 0.0 4.3 0.00 0.00 0.00 79 1009.5
20260509111307 68 217 0.0 4.3 0.00 0.00 0.00 78 1009.6
20260509110805 68 54 0.9 7.0 0.00 0.00 0.00 78 1009.5
20260509110301 68 346 6.1 11.3 0.00 0.00 0.00 78 1009.5
20260509105759 68 13 6.1 11.3 0.00 0.00 0.00 78 1009.4
20260509105257 68 38 1.7 8.7 0.00 0.00 0.00 78 1009.5
20260509104753 68 322 5.2 8.7 0.00 0.00 0.00 78 1009.5
20260509104250 67 277 1.7 8.7 0.00 0.00 0.00 79 1010.0
20260509103748 67 254 3.5 7.0 0.00 0.00 0.00 78 1009.8
20260509103245 67 235 5.2 7.0 0.00 0.00 0.00 78 1009.9
20260509102744 66 259 3.5 8.7 0.00 0.00 0.00 77 1009.9
20260509102240 66 282 6.1 11.3 0.00 0.00 0.00 78 1010.0
20260509101737 66 314 5.2 8.7 0.00 0.00 0.00 80 1009.8
20260509101233 66 226 4.3 4.3 0.00 0.00 0.00 83 1010.0
20260509100730 67 176 0.0 0.0 0.00 0.00 0.00 82 1009.5
20260509100228 67 190 0.0 4.3 0.00 0.00 0.00 82 1009.9
20260509095724 67 341 4.3 7.0 0.00 0.00 0.00 80 1009.5
20260509095221 68 156 0.0 1.7 0.00 0.00 0.00 79 1009.6
20260509094718 68 12 4.3 4.3 0.00 0.00 0.00 77 1009.6
20260509094215 69 191 0.0 1.7 0.00 0.00 0.00 76 1009.4
20260509093713 69 29 1.7 7.0 0.00 0.00 0.00 76 1009.1
20260509093210 68 342 10.4 22.6 0.00 0.00 0.00 77 1009.4
20260509092708 68 245 3.5 7.0 0.00 0.00 0.00 80 1008.6
20260509092206 69 322 9.6 15.6 0.00 0.00 0.00 85 1007.0
20260509091704 69 157 8.7 8.7 0.00 0.00 0.00 84 1006.4
20260509091159 69 103 5.2 8.7 0.00 0.00 0.00 83 1006.4
20260509090658 69 131 7.8 13.0 0.00 0.00 0.00 82 1006.3
20260509090155 68 156 7.8 13.0 0.00 0.00 0.00 82 1006.4
20260509085652 68 195 1.7 13.0 0.00 0.00 0.00 82 1006.7
20260509085148 68 128 4.3 8.7 0.00 0.00 0.00 82 1006.9
20260509084646 68 311 3.5 15.6 0.00 0.00 0.00 82 1007.1
20260509084143 68 194 2.6 11.3 0.00 0.00 0.00 82 1006.8
20260509083640 68 151 1.7 8.7 0.00 0.00 0.00 83 1007.2
20260509083136 68 120 0.9 15.6 0.00 0.00 0.00 84 1007.4
20260509082634 68 252 4.3 13.0 0.00 0.00 0.00 84 1007.4
20260509082130 68 139 1.7 7.0 0.00 0.00 0.00 84 1007.5
20260509081627 68 119 3.5 8.7 0.00 0.00 0.00 85 1007.6
20260509081125 68 222 1.7 11.3 0.00 0.00 0.00 87 1008.0
20260509080623 68 139 2.6 13.0 0.00 0.00 0.00 85 1007.9
20260509080120 69 181 1.7 11.3 0.00 0.00 0.00 84 1008.4
20260509075618 70 118 6.1 8.7 0.00 0.00 0.00 79 1008.2
20260509075116 70 133 4.3 8.7 0.00 0.00 0.00 75 1008.2
20260509074612 70 173 0.9 1.7 0.00 0.00 0.00 76 1008.7
20260509074109 70 132 2.6 4.3 0.00 0.00 0.00 75 1008.7
20260509073606 70 177 0.9 7.0 0.00 0.00 0.00 77 1008.9
20260509073102 70 156 7.8 11.3 0.00 0.00 0.00 77 1009.2
20260509072558 70 151 5.2 8.7 0.00 0.00 0.00 81 1009.9
20260509072055 69 173 0.0 1.7 0.00 0.00 0.00 82 1010.4
20260509071552 69 205 4.3 8.7 0.00 0.00 0.00 82 1010.6
20260509071050 69 202 2.6 11.3 0.00 0.00 0.00 85 1010.6
20260509070547 69 226 5.2 8.7 0.00 0.00 0.00 88 1011.1
20260509070043 70 259 9.6 15.6 0.00 0.00 0.00 89 1011.6
20260509065538 70 220 3.5 7.0 0.00 0.00 0.00 89 1011.7
20260509065035 69 191 5.2 8.7 0.00 0.00 0.00 90 1011.8
20260509064532 69 313 8.7 13.0 0.00 0.00 0.00 92 1012.3
20260509064031 69 242 11.3 13.0 0.00 0.00 0.00 92 1012.4
20260509063525 69 220 1.7 7.0 0.00 0.00 0.00 92 1012.3
20260509063023 69 246 3.5 7.0 0.00 0.00 0.00 92 1012.2
20260509062520 69 241 2.6 4.3 0.00 0.00 0.00 92 1011.9
20260509062018 69 235 3.5 4.3 0.00 0.00 0.00 93 1011.8
20260509061515 68 256 5.2 7.0 0.00 0.00 0.00 93 1012.0
20260509061012 68 184 0.0 4.3 0.00 0.00 0.00 93 1011.8
20260509060509 68 204 0.0 4.3 0.00 0.00 0.00 93 1011.8
20260509060005 68 147 0.0 1.7 0.00 0.00 0.00 92 1012.0
20260509055500 68 141 0.0 0.0 0.00 0.00 0.00 92 1011.5
20260509054957 68 150 0.0 4.3 0.00 0.00 0.00 92 1011.4
20260509054453 68 181 0.0 1.7 0.00 0.00 0.00 92 1011.8
20260509053952 68 27 2.6 4.3 0.00 0.00 0.00 92 1011.5
20260509053449 68 177 0.9 1.7 0.00 0.00 0.00 92 1011.5
20260509052947 68 186 0.0 1.7 0.00 0.00 0.00 91 1011.6
20260509052444 69 273 6.1 7.0 0.00 0.00 0.00 91 1011.6
20260509051942 69 38 5.2 13.0 0.00 0.00 0.00 90 1011.6
20260509051439 70 26 3.5 4.3 0.00 0.00 0.00 90 1011.1
20260509050936 70 161 0.0 0.0 0.00 0.00 0.00 89 1010.7
20260509050433 70 211 1.7 4.3 0.00 0.00 0.00 89 1010.4
20260509045930 70 135 0.0 1.7 0.00 0.00 0.00 89 1010.6
20260509045427 70 113 1.7 8.7 0.00 0.00 0.00 89 1010.3
20260509044923 70 159 0.9 4.3 0.00 0.00 0.00 89 1010.2
20260509044421 70 147 1.7 4.3 0.00 0.00 0.00 89 1010.4
20260509043919 70 123 0.0 1.7 0.00 0.00 0.00 89 1010.6
20260509043414 70 140 0.0 1.7 0.00 0.00 0.00 89 1010.6
20260509042910 70 160 0.9 1.7 0.00 0.00 0.00 89 1010.6
20260509042407 70 162 0.9 1.7 0.00 0.00 0.00 88 1010.6
20260509041903 70 137 0.0 0.0 0.00 0.00 0.00 88 1010.6
20260509041401 70 146 0.0 1.7 0.00 0.00 0.00 88 1010.6
20260509040858 70 150 0.0 1.7 0.00 0.00 0.00 88 1010.6
20260509040356 70 155 0.0 0.0 0.00 0.00 0.00 88 1010.7
20260509035853 71 139 0.0 1.7 0.00 0.00 0.00 87 1010.7
20260509035350 71 84 0.0 1.7 0.00 0.00 0.00 87 1010.7
20260509034846 71 135 5.2 7.0 0.00 0.00 0.00 87 1010.3
20260509034344 71 141 0.9 7.0 0.00 0.00 0.00 87 1010.2
20260509033840 71 194 2.6 8.7 0.00 0.00 0.00 87 1009.8
20260509033338 71 134 3.5 7.0 0.00 0.00 0.00 87 1009.8
20260509032834 71 159 1.7 4.3 0.00 0.00 0.00 87 1009.8
20260509032332 71 98 1.7 8.7 0.00 0.00 0.00 86 1009.6
20260509031830 71 186 3.5 8.7 0.00 0.00 0.00 86 1008.9
20260509031326 71 113 10.4 15.6 0.00 0.00 0.00 86 1009.1
20260509030824 71 120 2.6 8.7 0.00 0.00 0.00 86 1009.1
20260509030322 71 125 0.9 1.7 0.00 0.00 0.00 86 1009.2
20260509025818 71 206 4.3 11.3 0.00 0.00 0.00 85 1008.9
20260509025314 72 154 7.8 11.3 0.00 0.00 0.00 85 1008.9
20260509024809 72 169 7.0 11.3 0.00 0.00 0.00 85 1008.7
20260509024306 72 208 6.1 11.3 0.00 0.00 0.00 84 1008.6
20260509023803 72 180 4.3 11.3 0.00 0.00 0.00 84 1008.6
20260509023300 72 137 0.0 8.7 0.00 0.00 0.00 84 1008.4
20260509022756 72 139 1.7 4.3 0.00 0.00 0.00 83 1008.4
20260509022254 72 172 1.7 7.0 0.00 0.00 0.00 83 1008.4
20260509021750 72 174 6.1 11.3 0.00 0.00 0.00 82 1008.3
20260509021248 73 152 5.2 11.3 0.00 0.00 0.00 82 1008.2
20260509020746 73 140 7.0 11.3 0.00 0.00 0.00 81 1008.3
20260509020243 73 172 2.6 7.0 0.00 0.00 0.00 81 1008.3
20260509015741 73 187 4.3 8.7 0.00 0.00 0.00 81 1008.5
20260509015239 73 158 1.7 4.3 0.00 0.00 0.00 81 1008.6
20260509014735 73 123 1.7 4.3 0.00 0.00 0.00 81 1008.7
20260509014232 73 129 0.0 0.0 0.00 0.00 0.00 81 1009.0
20260509013729 73 163 0.0 1.7 0.00 0.00 0.00 81 1008.7
20260509013224 72 164 3.5 4.3 0.00 0.00 0.00 81 1008.9
20260509012721 72 172 0.9 1.7 0.00 0.00 0.00 81 1008.8
20260509012218 72 177 0.0 0.0 0.00 0.00 0.00 81 1008.6
20260509011715 72 183 0.0 0.0 0.00 0.00 0.00 81 1008.7
20260509011213 73 198 0.0 1.7 0.00 0.00 0.00 80 1008.4
20260509010711 73 154 0.0 0.0 0.00 0.00 0.00 80 1008.4
20260509010207 73 162 0.0 0.0 0.00 0.00 0.00 80 1008.5
20260509005704 73 105 0.0 4.3 0.00 0.00 0.00 80 1008.3
20260509005201 73 151 1.7 8.7 0.00 0.00 0.00 79 1008.2
20260509004656 73 184 6.1 8.7 0.00 0.00 0.00 79 1008.2
20260509004154 73 183 5.2 7.0 0.00 0.00 0.00 78 1008.0
20260509003652 73 176 3.5 4.3 0.00 0.00 0.00 78 1008.0
20260509003149 73 141 0.9 4.3 0.00 0.00 0.00 78 1007.9
20260509002646 73 204 2.6 7.0 0.00 0.00 0.00 78 1008.0
20260509002143 73 152 1.7 8.7 0.00 0.00 0.00 78 1008.2
20260509001641 73 167 1.7 4.3 0.00 0.00 0.00 78 1008.3
20260509001136 73 158 0.0 4.3 0.00 0.00 0.00 78 1008.3
20260509000635 73 160 1.7 7.0 0.00 0.00 0.00 78 1008.5
20260509000131 73 257 4.3 7.0 0.00 0.00 0.00 77 1008.5
20260508235629 73 174 0.0 1.7 0.00 0.00 0.00 77 1008.6
20260508235125 73 162 0.0 7.0 0.00 0.00 0.00 77 1008.6
20260508234623 73 166 0.0 4.3 0.00 0.00 0.00 77 1008.7
20260508234119 73 157 1.7 4.3 0.00 0.00 0.00 77 1008.7
20260508233619 73 161 1.7 7.0 0.00 0.00 0.00 77 1008.5
20260508233116 73 138 0.0 4.3 0.00 0.00 0.00 77 1008.5
20260508232613 73 266 0.0 7.0 0.00 0.00 0.00 77 1008.7
20260508232109 74 146 6.1 11.3 0.00 0.00 0.00 76 1008.6
20260508231607 73 158 0.0 8.7 0.00 0.00 0.00 76 1008.5
20260508231104 74 142 3.5 4.3 0.00 0.00 0.00 76 1008.5
20260508230600 73 159 3.5 8.7 0.00 0.00 0.00 76 1008.6
20260508230057 74 145 3.5 11.3 0.00 0.00 0.00 76 1008.6
20260508225554 74 151 1.7 7.0 0.00 0.00 0.00 76 1008.6
20260508225051 74 98 4.3 7.0 0.00 0.00 0.00 75 1008.6
20260508224549 74 165 7.0 8.7 0.00 0.00 0.00 75 1008.5
20260508224046 74 136 3.5 8.7 0.00 0.00 0.00 75 1008.7
20260508223544 74 170 3.5 13.0 0.00 0.00 0.00 75 1008.6
20260508223041 74 160 8.7 11.3 0.00 0.00 0.00 74 1008.4
20260508222538 74 88 4.3 11.3 0.00 0.00 0.00 73 1008.4
20260508222035 74 135 3.5 8.7 0.00 0.00 0.00 73 1008.6
20260508221531 76 137 3.5 8.7 0.00 0.00 0.00 70 1008.4
20260508221027 75 107 3.5 7.0 0.00 0.00 0.00 71 1008.4
20260508220524 74 146 1.7 8.7 0.00 0.00 0.00 73 1008.8
20260508220020 74 146 7.0 11.3 0.00 0.00 0.00 71 1008.7
20260508215517 74 100 6.1 13.0 0.00 0.00 0.00 71 1008.7
20260508215014 73 179 3.5 8.7 0.00 0.00 0.00 73 1008.8
20260508214511 73 111 8.7 18.2 0.00 0.00 0.00 72 1009.1
20260508214007 73 160 2.6 8.7 0.00 0.00 0.00 71 1009.0
20260508213505 74 147 7.8 18.2 0.00 0.00 0.00 70 1009.1